[[{"header":{"parameterUnit":"m.s-1","parameterCategory":1,"la1":30.2991,"la2":30.254,"lo1":-89.0895,"lo2":-89.0444,"dy":0.0017,"dx":0.0017,"nx":28,"ny":28,"refTime":"2023-08-12T21:00:00:Z","depth":0,"parameterNumber":2,"parameterNumberName":"U-component_of_WINDS"},"data":[0,0,0,0,0,0,0,0,0,0,0,0,0,0,0,0,0,0,0,0,0,0,0,0,0,0,0,0,0,0,0,0,0,0,0,0,0,0,0,0,0,0,0,0,0,0,0,0,0,0,0,0,0,0,0,0,0,0,1.0903,1.0905,0,1.1073,1.1074,1.1076,1.1154,1.1154,1.1154,1.1154,1.1327,1.1332,1.1337,0,0,0,0,0,0,0,0,0,0,0,0,0,1.0646,1.0651,1.0903,1.0905,1.0907,1.1072,1.1075,1.1077,1.1154,1.1154,1.1154,1.1154,1.1326,1.1331,1.1337,0,0,0,0,0,0,0,0,0,0,0,0,0,1.0781,1.0652,1.0903,1.0966,1.0973,1.1072,1.1075,1.1077,1.1154,1.1154,1.1154,1.1154,1.1324,1.1331,1.1338,1.1386,0,0,1.136,1.1363,0,0,0,0,0,0,0,0,1.0773,1.079,1.0955,1.0962,1.097,1.1092,1.1048,1.1181,1.1154,1.1086,1.1154,1.1154,1.1249,1.1263,1.1295,1.1395,1.1402,1.136,1.1365,1.1368,1.137,0,0,0,0,0,0,0,1.0764,1.0783,1.097,1.0957,1.0966,1.0986,1.1004,1.1073,1.1167,1.1092,1.1098,1.1117,1.1254,1.1288,1.1299,1.1405,1.136,1.1367,1.1371,1.1374,1.1552,1.1553,0,0,0,0,0,0,1.0744,1.0775,1.0965,1.0975,1.0869,1.099,1.1011,1.1053,1.1166,1.1183,1.1117,1.112,1.1276,1.1291,1.1306,1.137,1.1368,1.1374,1.1379,1.1552,1.1552,1.1553,0,0,0,0,0,0,1.0738,1.076,1.0958,1.0877,1.0904,1.0995,1.1041,1.1057,1.1091,1.1185,1.1202,1.1134,1.1276,1.1296,1.1366,1.1377,1.1378,1.1384,1.1551,1.1552,1.1552,1.1499,0,0,0,0,0,0,1.0731,1.0758,1.0777,1.0877,1.0908,1.1015,1.1042,1.106,1.1103,1.1109,1.1206,1.1222,1.1277,1.1355,1.1373,1.1387,1.139,1.1551,1.1551,1.1552,1.15,1.1497,1.1495,0,0,0,0,0,1.0721,1.0756,1.0778,1.0801,1.0934,1.1016,1.1033,1.1096,1.1104,1.1124,1.1184,1.1219,1.1373,1.1361,1.1382,1.1399,1.155,1.1551,1.1552,1.1501,1.1498,1.1495,0,0,0,0,0,0,1.0656,1.077,1.0796,1.0864,1.0929,1.1028,1.1056,1.1091,1.1156,1.1158,1.1233,1.1255,1.1318,1.1365,1.135,1.1451,1.1465,1.147,1.1418,1.1416,1.1414,1.1402,1.1396,0,0,0,0,0,1.0649,1.0706,1.0802,1.0853,1.0884,1.0964,1.1002,1.1045,1.1116,1.1144,1.1209,1.1277,1.1341,1.1381,1.1445,1.1507,1.1529,1.1528,1.1526,1.1524,1.1528,1.1564,1.1565,1.1556,1.1556,1.1556,0,0,1.0636,1.0705,1.0737,1.0841,1.0897,1.0954,1.0987,1.1046,1.1089,1.1153,1.1223,1.1273,1.1353,1.1419,1.1452,1.1461,1.1535,1.1525,1.1522,1.1528,1.1565,1.1566,1.1566,1.1557,1.1557,1.1557,0,0,1.0641,1.0699,1.0748,1.0803,1.0887,1.094,1.0951,1.1045,1.1081,1.1152,1.1201,1.1253,1.1361,1.1416,1.1458,1.1483,1.1517,1.1501,1.149,1.1524,1.1525,1.1526,1.1535,1.1537,1.1505,1.1504,1.1504,0,1.0614,1.0702,1.0768,1.0824,1.0869,1.0928,1.0978,1.1028,1.1128,1.1157,1.1166,1.1302,1.136,1.144,1.1446,1.1478,1.1493,1.1491,1.1519,1.1521,1.1523,1.1533,1.1536,1.1502,1.1502,1.1503,1.1503,0,1.0665,1.0725,1.0754,1.0849,1.0897,1.0949,1.1022,1.1063,1.11,1.1152,1.1224,1.1295,1.1374,1.1396,1.1434,1.1481,1.1484,1.1505,1.152,1.152,1.1531,1.1535,1.1498,1.1499,1.15,1.1501,0,0,1.0635,1.0765,1.0775,1.0819,1.0915,1.0963,1.1017,1.1095,1.1128,1.1194,1.1242,1.1331,1.1351,1.1399,1.1443,1.1473,1.1488,1.149,1.1493,1.1488,1.1544,1.1529,1.1532,1.1511,1.1512,1.1513,1.1538,0,1.0655,1.0756,1.0816,1.0892,1.0948,1.1005,1.1053,1.1117,1.1166,1.1221,1.1275,1.1338,1.1359,1.1388,1.142,1.1479,1.15,1.1478,1.1556,1.1558,1.1535,1.1537,1.1521,1.1542,1.1542,1.1543,1.1544,0,1.0691,1.0756,1.0838,1.0928,1.0954,1.0995,1.1071,1.1122,1.1196,1.1229,1.1282,1.1326,1.1386,1.1394,1.1478,1.1461,1.1496,1.153,1.1532,1.1543,1.1552,1.1548,1.155,1.1553,1.155,1.155,1.1549,0,1.0661,1.0769,1.0833,1.0868,1.0974,1.1002,1.1048,1.1121,1.1163,1.1229,1.1257,1.1328,1.1367,1.1421,1.1484,1.1484,1.1561,1.1575,1.1591,1.1589,1.1605,1.1603,1.1613,1.1626,1.1626,1.1626,1.1626,0,1.0677,1.0725,1.0821,1.086,1.0915,1.0983,1.1035,1.1085,1.115,1.1199,1.1252,1.1297,1.1376,1.1431,1.148,1.1541,1.1559,1.1588,1.16,1.1584,1.158,1.1609,1.1609,1.1627,1.1627,1.1627,1.1626,0,1.0654,1.072,1.0792,1.0886,1.0911,1.0948,1.1028,1.1068,1.1119,1.1181,1.1199,1.128,1.1347,1.1414,1.1505,1.1538,1.1598,1.1615,1.1574,1.1581,1.1593,1.1591,1.1622,1.1629,1.1636,1.1636,1.1636,0,1.066,1.0698,1.0796,1.0833,1.0877,1.0936,1.0979,1.1047,1.109,1.1176,1.1205,1.1276,1.1336,1.1441,1.1508,1.1577,1.1596,1.1602,1.1607,1.1589,1.1597,1.1594,1.1598,1.16,1.16,1.1599,1.1599,0,1.0663,1.0694,1.0755,1.0826,1.0876,1.0936,1.0998,1.1025,1.1104,1.115,1.1219,1.1265,1.1357,1.1427,1.1504,1.1551,1.1588,1.1596,1.1604,1.1588,1.1562,1.1577,1.1568,1.1596,1.1596,1.1596,1.1597,1.1597,1.0656,1.0692,1.0767,1.0832,1.0886,1.0942,1.0983,1.104,1.1099,1.1179,1.1215,1.1285,1.1357,1.1464,1.151,1.1565,1.1575,1.1585,1.1588,1.159,1.1586,1.1552,1.1579,1.1579,1.1579,1.158,1.158,0,1.0663,1.0713,1.0773,1.0857,1.0908,1.0938,1.1008,1.1048,1.1109,1.1173,1.1231,1.131,1.1378,1.1449,1.1521,1.1552,1.157,1.1568,1.1567,1.1577,1.1573,1.156,1.1552,1.1552,1.1552,1.1552,1.1552,1.1552,1.0673,1.0736,1.0775,1.0865,1.0916,1.0984,1.1021,1.1073,1.1124,1.121,1.1267,1.1313,1.138,1.1457,1.152,1.1539,1.1564,1.1556,1.1581,1.1576,1.1578,1.158,1.1567,1.1561,1.1561,1.158,1.1581,1.1581]},{"header":{"parameterUnit":"m.s-1","parameterCategory":1,"la1":30.2991,"la2":30.254,"lo1":-89.0895,"lo2":-89.0444,"dy":0.0017,"dx":0.0017,"nx":28,"ny":28,"refTime":"2023-08-12T21:00:00:Z","depth":0,"parameterNumber":3,"parameterNumberName":"V-component_of_WINDS"},"data":[0,0,0,0,0,0,0,0,0,0,0,0,0,0,0,0,0,0,0,0,0,0,0,0,0,0,0,0,0,0,0,0,0,0,0,0,0,0,0,0,0,0,0,0,0,0,0,0,0,0,0,0,0,0,0,0,0,0,4.7493,4.7492,0,4.7406,4.7405,4.7404,4.7321,4.732,4.7319,4.7318,4.7223,4.7221,4.722,0,0,0,0,0,0,0,0,0,0,0,0,0,4.7582,4.7581,4.7493,4.7492,4.7491,4.7406,4.7405,4.7404,4.7321,4.732,4.7318,4.7317,4.7223,4.7221,4.7219,0,0,0,0,0,0,0,0,0,0,0,0,0,4.7524,4.7581,4.7493,4.744,4.7434,4.7406,4.7405,4.7403,4.7321,4.732,4.7318,4.7317,4.7224,4.7222,4.7219,4.7236,0,0,4.7212,4.7211,0,0,0,0,0,0,0,0,4.7528,4.7521,4.7449,4.7443,4.7437,4.7373,4.7401,4.7347,4.7322,4.7364,4.7318,4.7316,4.7273,4.7267,4.7254,4.7231,4.7227,4.7212,4.721,4.7209,4.7209,0,0,0,0,0,0,0,4.7532,4.7524,4.7458,4.7448,4.7441,4.7418,4.7408,4.7391,4.7328,4.736,4.7354,4.7345,4.727,4.7256,4.7251,4.7226,4.7212,4.721,4.7208,4.7207,4.7211,4.7213,0,0,0,0,0,0,4.7545,4.7528,4.7461,4.7456,4.748,4.7418,4.7407,4.7395,4.7328,4.7317,4.7346,4.7341,4.7261,4.7254,4.7247,4.7262,4.7209,4.7207,4.7206,4.721,4.7212,4.7213,0,0,0,0,0,0,4.7547,4.754,4.7465,4.749,4.7479,4.7418,4.7405,4.7394,4.738,4.7318,4.7306,4.7344,4.726,4.7251,4.7239,4.7257,4.7206,4.7204,4.7208,4.721,4.7212,4.7291,0,0,0,0,0,0,4.755,4.7541,4.7548,4.7491,4.7478,4.7461,4.7407,4.7393,4.7377,4.737,4.7313,4.7302,4.7258,4.7243,4.7237,4.7253,4.7202,4.7206,4.7209,4.7212,4.7287,4.7296,4.7304,0,0,0,0,0,4.7554,4.7573,4.7549,4.7541,4.7486,4.7462,4.7454,4.7404,4.7379,4.7385,4.7345,4.7304,4.7257,4.7243,4.7235,4.7251,4.7205,4.7208,4.7212,4.7283,4.7294,4.7304,0,0,0,0,0,0,4.7631,4.7564,4.7537,4.7539,4.7507,4.7448,4.7453,4.7418,4.7391,4.7385,4.7323,4.731,4.7306,4.7277,4.7263,4.7263,4.7225,4.7227,4.7282,4.7292,4.73,4.7307,4.72,0,0,0,0,0,4.7649,4.7637,4.7578,4.7585,4.7571,4.7515,4.7503,4.7467,4.7431,4.7416,4.7375,4.734,4.7317,4.7303,4.7278,4.7282,4.7268,4.7289,4.7298,4.7305,4.7307,4.7306,4.7314,4.7224,4.7224,4.7224,0,0,4.7685,4.7647,4.7642,4.76,4.7571,4.7558,4.7504,4.7493,4.7481,4.7414,4.7401,4.737,4.7326,4.7323,4.7319,4.7298,4.7329,4.7309,4.7316,4.7313,4.731,4.7319,4.7326,4.7227,4.7226,4.7226,0,0,4.7743,4.7714,4.7716,4.7689,4.7646,4.7609,4.761,4.7556,4.7533,4.752,4.7469,4.7454,4.7416,4.7387,4.7367,4.7414,4.7375,4.7408,4.7452,4.7451,4.7458,4.7464,4.748,4.7487,4.741,4.741,4.7411,0,4.7792,4.7772,4.7721,4.7713,4.7695,4.7635,4.7636,4.7611,4.7562,4.755,4.7529,4.748,4.7446,4.7434,4.7446,4.7432,4.7429,4.7414,4.7462,4.7467,4.7472,4.7486,4.7493,4.7415,4.7414,4.7414,4.7413,0,4.7834,4.7821,4.7828,4.7784,4.7767,4.7763,4.771,4.7699,4.7665,4.763,4.7616,4.7574,4.7539,4.7534,4.75,4.7517,4.7506,4.7474,4.7434,4.7486,4.7498,4.7503,4.7421,4.7419,4.7418,4.7417,0,0,4.7938,4.7867,4.787,4.785,4.7798,4.7786,4.7779,4.7748,4.7738,4.7706,4.7698,4.7667,4.7637,4.7615,4.7577,4.7577,4.7616,4.7545,4.7543,4.7559,4.7631,4.7655,4.7662,4.759,4.7591,4.7592,4.7634,0,4.7987,4.7973,4.7927,4.7926,4.7913,4.7856,4.7849,4.7816,4.7783,4.7765,4.7727,4.7707,4.7669,4.7655,4.7653,4.7612,4.763,4.7608,4.7579,4.7579,4.7592,4.7668,4.7694,4.7736,4.7639,4.7639,4.764,0,4.8042,4.8016,4.8015,4.7964,4.7956,4.7952,4.7918,4.7903,4.7863,4.7839,4.7815,4.7773,4.776,4.7725,4.7706,4.7692,4.7678,4.7656,4.7656,4.7651,4.7612,4.7664,4.7748,4.7754,4.7647,4.7647,4.7646,0,4.8117,4.8081,4.8075,4.806,4.8,4.7998,4.7973,4.7933,4.7916,4.7887,4.7875,4.7844,4.7827,4.7802,4.7753,4.7732,4.7738,4.7699,4.7716,4.7717,4.7719,4.772,4.7801,4.7712,4.7712,4.7712,4.7711,0,4.8176,4.8177,4.8108,4.8105,4.8104,4.805,4.805,4.8019,4.7983,4.7971,4.7919,4.7909,4.7844,4.7826,4.7786,4.7776,4.7768,4.7747,4.7736,4.7751,4.7754,4.774,4.7735,4.7713,4.7713,4.7713,4.7712,0,4.8259,4.8214,4.8203,4.8149,4.8135,4.8137,4.8089,4.8082,4.8046,4.8031,4.8025,4.7968,4.7943,4.7892,4.7852,4.7826,4.7824,4.7805,4.7838,4.7831,4.7851,4.785,4.7925,4.7932,4.784,4.7841,4.7842,0,4.8299,4.8299,4.8245,4.8234,4.8212,4.8195,4.8178,4.8125,4.811,4.8065,4.8064,4.8035,4.801,4.7972,4.7926,4.7895,4.7875,4.7904,4.787,4.7885,4.7874,4.7875,4.7874,4.7911,4.7913,4.7914,4.7914,0,4.8375,4.8352,4.8332,4.8304,4.8286,4.8261,4.8232,4.8226,4.8165,4.8151,4.8126,4.8107,4.8067,4.8039,4.8002,4.7973,4.7933,4.7926,4.7928,4.7943,4.7961,4.795,4.7857,4.7924,4.7923,4.7922,4.7922,4.7921,4.8436,4.8433,4.8395,4.8374,4.8347,4.8322,4.8313,4.8277,4.8256,4.8222,4.8191,4.8169,4.8128,4.8074,4.8048,4.8029,4.8009,4.8013,4.8013,4.8015,4.8021,4.7965,4.8022,4.8021,4.8021,4.8021,4.802,0,4.8509,4.8482,4.8463,4.8426,4.8409,4.8375,4.8342,4.8329,4.8311,4.8278,4.8255,4.8226,4.8198,4.815,4.8118,4.8111,4.8092,4.8105,4.8104,4.8098,4.804,4.8041,4.8121,4.8121,4.8121,4.8121,4.8121,4.8121,4.8544,4.8537,4.851,4.8489,4.8461,4.8441,4.8425,4.8401,4.8374,4.8345,4.8323,4.8292,4.8252,4.8217,4.819,4.8176,4.8166,4.8184,4.8165,4.8111,4.8102,4.8093,4.8094,4.8183,4.8183,4.8223,4.8224,4.8224]}]]